St. Paul Lake Elmo, MN

4:55 AM CST on November 21, 2019 (GMT -0600)
St. Paul Lake Elmo

Weather History for K21D - September, 2019

Change the Weather History Date:

Thursday, September 26, 2019

  Actual Average (KSTP) Record (KSTP)
Temperature  
Mean Temperature 53 °F -  
Max Temperature 64 °F 65 °F 86 °F (2008)
Min Temperature 42 °F 44 °F 39 °F (2000)
Degree Days  
Heating Degree Days 12    
Growing Degree Days 3 (Base 50)    
Moisture  
Dew Point 45 °F    
Average Humidity 69    
Maximum Humidity 93    
Minimum Humidity 49    
Precipitation  
Precipitation 0.00 in - - ()
Sea Level Pressure  
Sea Level Pressure 29.84 in    
Wind  
Wind Speed 6 mph (SW)    
Max Wind Speed 15 mph    
Max Gust Speed 16 mph    
Visibility 10 miles    
Events      
Averages and records for this station are not official NWS values.
T = Trace of Precipitation, MM = Missing Value Source: NWS Daily Summary

Daily Weather History Graph

Daily Weather History Graph

Search for Another Location

Airport or City:

Astronomy

Sep. 26, 2019 Rise Set
Actual Time 7:03 AM CDT 7:01 PM CDT
Civil Twilight 6:33 AM CDT 7:30 PM CDT
Nautical Twilight 5:59 AM CDT 8:05 PM CDT
Astronomical Twilight 5:24 AM CDT 8:39 PM CDT
Moon 3:59 AM CDT (9/26) 6:24 PM CDT (9/26)
Length of Visible Light 12h 57m
Length of Day
11h 58m
Waning Crescent, 6% of the Moon is Illuminated
Sep 26
Waning Crescent
Sep 28
New
Oct 5
First Quarter
Oct 13
Full
Oct 21
Last Quarter

Hourly Weather History & Observations

Time (CDT) Temp. Windchill Dew Point Humidity Pressure Visibility Wind Dir Wind Speed Gust Speed Precip Events Conditions
12:15 AM 51.8 °F - 42.8 °F 71% 29.87 in 10.0 mi West 8.1 mph - N/A   Clear
12:16 AM 51.8 °F - 42.8 °F 71% 29.87 in 10.0 mi West 8.1 mph - N/A   Clear
12:35 AM 51.8 °F - 42.8 °F 71% 29.87 in 10.0 mi West 8.1 mph - N/A   Clear
12:36 AM 51.8 °F - 42.8 °F 71% 29.87 in 10.0 mi West 8.1 mph - N/A   Clear
12:58 AM 51.8 °F - 42.8 °F 71% 29.87 in 10.0 mi West 9.2 mph - N/A   Clear
1:17 AM 51.8 °F - 42.8 °F 71% 29.87 in 10.0 mi West 8.1 mph - N/A   Clear
1:36 AM 51.8 °F - 42.8 °F 71% 29.87 in 10.0 mi West 8.1 mph - N/A   Clear
1:55 AM 50.0 °F - 42.8 °F 76% 29.87 in 10.0 mi WSW 4.6 mph - N/A   Clear
1:56 AM 50.0 °F - 42.8 °F 76% 29.87 in 10.0 mi WSW 4.6 mph - N/A   Clear
2:15 AM 50.0 °F - 42.8 °F 76% 29.87 in 10.0 mi West 4.6 mph - N/A   Clear
2:19 AM 50.0 °F - 42.8 °F 76% 29.87 in 10.0 mi West 4.6 mph - N/A   Clear
2:37 AM 48.2 °F - 42.8 °F 82% 29.87 in 10.0 mi West 3.5 mph - N/A   Clear
2:55 AM 50.0 °F - 42.8 °F 76% 29.87 in 10.0 mi Calm Calm - N/A   Clear
3:15 AM 46.4 °F 43.5 °F 42.8 °F 87% 29.87 in 10.0 mi WSW 5.8 mph - N/A   Clear
3:16 AM 46.4 °F 43.5 °F 42.8 °F 87% 29.87 in 10.0 mi WSW 5.8 mph - N/A   Clear
3:35 AM 48.2 °F - 42.8 °F 82% 29.87 in 10.0 mi WSW 5.8 mph - N/A   Clear
3:36 AM 48.2 °F - 42.8 °F 82% 29.87 in 10.0 mi WSW 5.8 mph - N/A   Clear
3:58 AM 46.4 °F 45.2 °F 41.0 °F 81% 29.87 in 10.0 mi West 3.5 mph - N/A   Clear
4:17 AM 48.2 °F - 42.8 °F 82% 29.87 in 10.0 mi Calm Calm - N/A   Clear
4:36 AM 44.6 °F - 42.8 °F 93% 29.88 in 10.0 mi Calm Calm - N/A   Clear
4:55 AM 44.6 °F - 42.8 °F 93% 29.88 in 10.0 mi Calm Calm - N/A   Clear
4:56 AM 44.6 °F - 42.8 °F 93% 29.88 in 10.0 mi Calm Calm - N/A   Clear
5:15 AM 44.6 °F - 42.8 °F 93% 29.89 in 10.0 mi Calm Calm - N/A   Clear
5:19 AM 46.4 °F - 42.8 °F 87% 29.89 in 10.0 mi Calm Calm - N/A   Clear
5:38 AM 46.4 °F - 42.8 °F 87% 29.90 in 10.0 mi Calm Calm - N/A   Clear
5:55 AM 46.4 °F - 42.8 °F 87% 29.89 in 10.0 mi Calm Calm - N/A   Clear
6:15 AM 46.4 °F 43.5 °F 42.8 °F 87% 29.90 in 10.0 mi SW 5.8 mph - N/A   Clear
6:35 AM 42.8 °F - 41.0 °F 93% 29.90 in 10.0 mi Calm Calm - N/A   Clear
6:36 AM 42.8 °F - 41.0 °F 93% 29.90 in 10.0 mi Calm Calm - N/A   Clear
6:58 AM 44.6 °F - 42.8 °F 93% 29.90 in 10.0 mi Calm Calm - N/A   Clear
7:17 AM 44.6 °F 42.2 °F 42.8 °F 93% 29.90 in 10.0 mi WSW 4.6 mph - N/A   Clear
7:36 AM 44.6 °F - 42.8 °F 93% 29.90 in 10.0 mi Calm Calm - N/A   Clear
7:55 AM 46.4 °F 43.5 °F 44.6 °F 93% 29.90 in 10.0 mi WSW 5.8 mph - N/A   Clear
8:15 AM 50.0 °F - 44.6 °F 82% 29.91 in 10.0 mi WSW 4.6 mph - N/A   Clear
8:20 AM 50.0 °F - 46.4 °F 87% 29.91 in 10.0 mi WSW 5.8 mph - N/A   Clear
8:37 AM 51.8 °F - 46.4 °F 82% 29.92 in 10.0 mi WSW 8.1 mph - N/A   Clear
8:56 AM 51.8 °F - 46.4 °F 82% 29.92 in 10.0 mi WSW 8.1 mph - N/A   Clear
9:15 AM 53.6 °F - 46.4 °F 77% 29.92 in 10.0 mi WSW 8.1 mph - N/A   Clear
9:16 AM 53.6 °F - 46.4 °F 77% 29.93 in 10.0 mi WSW 6.9 mph - N/A   Clear
9:35 AM 53.6 °F - 46.4 °F 77% 29.93 in 10.0 mi WSW 8.1 mph - N/A   Clear
9:36 AM 53.6 °F - 46.4 °F 77% 29.93 in 10.0 mi WSW 8.1 mph - N/A   Clear
9:58 AM 55.4 °F - 46.4 °F 72% 29.93 in 10.0 mi SW 6.9 mph - N/A   Clear
10:17 AM 55.4 °F - 46.4 °F 72% 29.93 in 10.0 mi WSW 6.9 mph - N/A   Clear
10:36 AM 59.0 °F - 48.2 °F 67% 29.93 in 10.0 mi SW 6.9 mph - N/A   Clear
10:55 AM 59.0 °F - 46.4 °F 63% 29.92 in 10.0 mi SW 6.9 mph - N/A   Clear
11:15 AM 59.0 °F - 46.4 °F 63% 29.93 in 10.0 mi SW 8.1 mph - N/A   Clear
11:20 AM 59.0 °F - 46.4 °F 63% 29.93 in 10.0 mi WSW 10.4 mph - N/A   Clear
11:37 AM 60.8 °F - 48.2 °F 63% 29.93 in 10.0 mi SW 9.2 mph - N/A   Clear
11:56 AM 60.8 °F - 46.4 °F 59% 29.93 in 10.0 mi SW 10.4 mph - N/A   Clear
12:15 PM 60.8 °F - 46.4 °F 59% 29.92 in 10.0 mi SW 11.5 mph 16.1 mph N/A   Clear
12:16 PM 60.8 °F - 46.4 °F 59% 29.92 in 10.0 mi SW 10.4 mph 16.1 mph N/A   Clear
12:35 PM 60.8 °F - 46.4 °F 59% 29.91 in 10.0 mi SW 10.4 mph - N/A   Clear
12:36 PM 60.8 °F - 46.4 °F 59% 29.91 in 10.0 mi SW 11.5 mph - N/A   Clear
12:58 PM 60.8 °F - 46.4 °F 59% 29.91 in 10.0 mi SW 11.5 mph - N/A   Clear
1:17 PM 62.6 °F - 46.4 °F 55% 29.90 in 10.0 mi WSW 10.4 mph - N/A   Clear
1:36 PM 62.6 °F - 46.4 °F 55% 29.90 in 10.0 mi WSW 9.2 mph - N/A   Clear
1:55 PM 62.6 °F - 46.4 °F 55% 29.89 in 10.0 mi SW 12.7 mph - N/A   Clear
2:15 PM 62.6 °F - 44.6 °F 52% 29.88 in 10.0 mi SW 10.4 mph - N/A   Clear
2:19 PM 62.6 °F - 46.4 °F 55% 29.87 in 10.0 mi SW 9.2 mph - N/A   Clear
2:37 PM 62.6 °F - 46.4 °F 55% 29.87 in 10.0 mi SW 11.5 mph - N/A   Clear
2:56 PM 64.4 °F - 46.4 °F 52% 29.86 in 10.0 mi WSW 10.4 mph - N/A   Clear
3:15 PM 64.4 °F - 46.4 °F 52% 29.85 in 10.0 mi SW 9.2 mph - N/A   Clear
3:16 PM 64.4 °F - 46.4 °F 52% 29.85 in 10.0 mi WSW 9.2 mph - N/A   Clear
3:35 PM 64.4 °F - 46.4 °F 52% 29.85 in 10.0 mi WSW 9.2 mph - N/A   Clear
3:36 PM 64.4 °F - 46.4 °F 52% 29.84 in 10.0 mi WSW 8.1 mph - N/A   Clear
3:58 PM 64.4 °F - 46.4 °F 52% 29.84 in 10.0 mi WSW 8.1 mph - N/A   Clear
4:17 PM 64.4 °F - 46.4 °F 52% 29.83 in 10.0 mi SSW 12.7 mph 16.1 mph N/A   Clear
4:36 PM 64.4 °F - 44.6 °F 49% 29.82 in 10.0 mi SSW 9.2 mph - N/A   Clear
4:55 PM 64.4 °F - 46.4 °F 52% 29.81 in 10.0 mi SSW 4.6 mph - N/A   Clear
4:56 PM 64.4 °F - 46.4 °F 52% 29.81 in 10.0 mi South 3.5 mph - N/A   Clear
5:15 PM 64.4 °F - 46.4 °F 52% 29.79 in 10.0 mi SSE 3.5 mph - N/A   Clear
5:19 PM 64.4 °F - 46.4 °F 52% 29.79 in 10.0 mi Calm Calm - N/A   Clear
5:37 PM 62.6 °F - 48.2 °F 59% 29.78 in 10.0 mi SE 3.5 mph - N/A   Scattered Clouds
5:55 PM 62.6 °F - 48.2 °F 59% 29.77 in 10.0 mi ESE 4.6 mph - N/A   Mostly Cloudy
6:15 PM 60.8 °F - 48.2 °F 63% 29.76 in 10.0 mi ESE 4.6 mph - N/A   Overcast
6:16 PM 60.8 °F - 48.2 °F 63% 29.76 in 10.0 mi ESE 4.6 mph - N/A   Overcast
6:36 PM 60.8 °F - 50.0 °F 68% 29.75 in 10.0 mi ESE 4.6 mph - N/A   Overcast
6:58 PM 60.8 °F - 50.0 °F 68% 29.75 in 10.0 mi SE 4.6 mph - N/A   Overcast
7:17 PM 60.8 °F - 50.0 °F 68% 29.75 in 10.0 mi ESE 4.6 mph - N/A   Overcast
7:35 PM 60.8 °F - 48.2 °F 63% 29.74 in 10.0 mi SE 8.1 mph - N/A   Overcast
7:36 PM 60.8 °F - 48.2 °F 63% 29.74 in 10.0 mi SE 8.1 mph - N/A   Overcast
7:55 PM 60.8 °F - 46.4 °F 59% 29.73 in 10.0 mi SE 6.9 mph - N/A   Overcast
8:15 PM 60.8 °F - 46.4 °F 59% 29.73 in 10.0 mi SE 8.1 mph - N/A   Overcast
8:20 PM 60.8 °F - 46.4 °F 59% 29.72 in 10.0 mi SE 5.8 mph - N/A   Overcast
8:37 PM 60.8 °F - 46.4 °F 59% 29.73 in 10.0 mi SSE 6.9 mph - N/A   Overcast
8:56 PM 60.8 °F - 46.4 °F 59% 29.73 in 10.0 mi SSE 6.9 mph - N/A   Overcast
9:15 PM 60.8 °F - 48.2 °F 63% 29.72 in 10.0 mi SSE 8.1 mph - N/A   Overcast
9:16 PM 60.8 °F - 48.2 °F 63% 29.72 in 10.0 mi SSE 6.9 mph - N/A   Overcast
9:35 PM 60.8 °F - 46.4 °F 59% 29.71 in 10.0 mi South 9.2 mph - N/A   Overcast
9:36 PM 60.8 °F - 46.4 °F 59% 29.71 in 10.0 mi South 8.1 mph - N/A   Overcast
9:58 PM 60.8 °F - 48.2 °F 63% 29.70 in 10.0 mi South 8.1 mph - N/A   Overcast
10:16 PM 60.8 °F - 48.2 °F 63% 29.71 in 10.0 mi South 8.1 mph - N/A   Overcast
10:36 PM 60.8 °F - 48.2 °F 63% 29.70 in 10.0 mi South 9.2 mph - N/A   Overcast
10:55 PM 62.6 °F - 46.4 °F 55% 29.69 in 10.0 mi SSE 10.4 mph - N/A   Overcast
11:15 PM 62.6 °F - 46.4 °F 55% 29.68 in 10.0 mi South 10.4 mph 16.1 mph N/A   Mostly Cloudy
11:20 PM 62.6 °F - 46.4 °F 55% 29.68 in 10.0 mi South 10.4 mph - N/A   Mostly Cloudy
11:56 PM 62.6 °F - 46.4 °F 55% 29.66 in 10.0 mi South 15.0 mph - N/A   Scattered Clouds